Flag for U.S.A. Weather past 2 weeks in Santa Clarita, California, U.S.A.

Now
57 °F

Passing clouds.


Feels Like: 57 °F
Forecast: 51 / 74 °F
Wind: No wind

Location: Van Nuys Airport

Current Time: May 24, 2015 at 3:05:52 AM

Latest Report: May 24, 2015 at 1:51 AM


Visibility: 10 mi

Pressure: 29.98 "Hg

Humidity: 74%

Dew point: 49 °F

Location of Santa ClaritaLocation

Historic Weather in Santa Clarita — Graph

°F

Santa Clarita temperature yesterday

Maximum temperature yesterday: 72 °F (at 3:51 PM)
Minimum temperature yesterday: 54 °F (at 5:51 AM)
Average temperature yesterday: 62 °F

Past Weeks' High & Low Weather Summary

 TemperatureHumidityPressure
High84 °F (May 11, 2:51 PM)92% (May 15, 4:51 AM)30.07 "Hg (May 15, 4:51 AM)
Low51 °F (May 10, 5:51 AM)18% (May 11, 1:51 PM)29.76 "Hg (May 11, 6:51 PM)
Average62 °F63%29.94 "Hg
* Reported May 9 1:51 AM — May 24 1:51 AM, Santa Clarita, Weather by CustomWeather, © 2015

Note: Actual official high and low records may vary slightly from our data, if they occured in-between our weather recording intervals... More about our weather records

Advertising

Santa Clarita weather history for previous 24 hours

 ConditionsComfort  
Time TempWeatherWind HumidityBarometerVisibility
1:51 AM
Sun, May 24
57 °FPassing clouds.No wind74%29.98 "Hg10 mi
12:51 AM58 °FPassing clouds.No wind72%29.98 "Hg10 mi
11:51 PM
Sat, May 23
56 °FPassing clouds.5 mph75%30.00 "Hg10 mi
10:51 PM59 °FPassing clouds.5 mph69%30.01 "Hg10 mi
9:51 PM60 °FOvercast.7 mph67%30.01 "Hg10 mi
8:51 PM62 °FOvercast.6 mph58%30.00 "Hg10 mi
7:51 PM63 °FOvercast.7 mph56%29.99 "Hg10 mi
6:51 PM65 °FOvercast.10 mph54%29.98 "Hg10 mi
5:51 PM67 °FPartly sunny.9 mph49%29.98 "Hg10 mi
4:51 PM70 °FMostly cloudy.14 mph47%29.98 "Hg10 mi
3:51 PM72 °FPartly sunny.14 mph46%29.99 "Hg10 mi
2:51 PM70 °FPartly sunny.9 mph49%30.01 "Hg10 mi
1:51 PM70 °FPartly sunny.N/A49%30.03 "Hg10 mi
12:51 PM68 °FOvercast.10 mph53%30.04 "Hg10 mi
11:51 AM66 °FPartly sunny.5 mph54%30.05 "Hg10 mi
10:51 AM66 °FScattered clouds.7 mph54%30.06 "Hg10 mi
9:58 AM66 °FPartly sunny.7 mph52%30.07 "Hg10 mi
8:51 AM62 °FScattered clouds.6 mph65%30.07 "Hg10 mi
7:51 AM59 °FSunny.3 mph75%30.06 "Hg10 mi
6:51 AM54 °FSunny.3 mph83%30.06 "Hg10 mi
5:51 AM54 °FPassing clouds.No wind83%30.04 "Hg10 mi
4:51 AM55 °FClear.No wind80%30.03 "Hg10 mi
3:51 AM55 °FClear.3 mph80%30.03 "Hg10 mi
Weather by CustomWeather, © 2015

See weather overviewHow to use our weather pages